User: anonymous   Login
Location: Valdosta
(30.8330°N, 83.2790°W)
Time: 04:29:25
(UTC-04:00)
Language:

Oscar 19 - Orbit

View from above orbital plane
View from above orbital plane
View from above satellite
View from above satellite

Ground track
Ground track

The orbit data is extracted from the following two-line orbital elements,

1 20442U 90005G   16238.89782177  .00000001  00000-0  16412-4 0  9994
2 20442  98.5454 172.8779 0010820 304.1027  55.9130 14.32826485389330
Epoch (UTC): 25 August 2016 21:32:51
Eccentricity: 0.0010820
inclination: 98.5454°
perigee height: 774 km
apogee height: 790 km
right ascension of ascending node: 172.8779°
argument of perigee: 304.1027°
revolutions per day: 14.32826485
mean anomaly at epoch: 55.9130°
orbit number at epoch: 38933

The dashed part of the orbit path shows where the satellite is in the earth's shadow,  

DLR